Regional Weather Roundup
Issued by NWS

Home | Current Version | Previous Version | Graphics & Text | Print | Product List | Glossary On
Versions: 1 2 3 4 5 6 7 8 9 10 11 12 13 14 15 16 17 18 19 20 21 22 23 24 25 26 27 28 29 30 31 32 33 34 35 36 37 38 39 40 41 42 43 44 45 46 47 48 49 50
000
ASUS43 KOAX 251702
RWRNE

WEATHER ROUNDUP FOR NEBRASKA
NATIONAL WEATHER SERVICE OMAHA NE
1200 PM CDT MON MAY 25 2015

NOTES: SATELLITE DATA IS BEING USED TO AUGMENT CLOUD COVER ABOVE
       12000 FEET.
       "FAIR" INDICATES FEW OR NO CLOUDS BELOW 12,000 FEET WITH NO
       SIGNIFICANT WEATHER AND/OR OBSTRUCTIONS TO VISIBILITY.

  * THESE STATIONS DO NOT REPORT WEATHER SUCH AS RAIN...SNOW OR FOG.

NEZ001>004-019>022-054>056-251800-
NEBRASKA PANHANDLE

CITY           SKY/WX    TMP DP  RH WIND       PRES   REMARKS
SCOTTSBLUFF    LGT RAIN  53  51  93 W12       29.86R
ALLIANCE       LGT RAIN  52  51  97 N8        29.81R FOG
CHADRON        CLOUDY    56  51  84 NE3       29.83S
SIDNEY         LGT RAIN  52  49  89 NW15      29.87R
$$

NEZ057>060-069>072-079>082-251800-
SOUTHWEST NEBRASKA

CITY           SKY/WX    TMP DP  RH WIND       PRES   REMARKS
NORTH PLATTE   CLOUDY    61  52  72 W12       29.80F
IMPERIAL       CLOUDY    61  50  67 NW16G23   29.82S
MCCOOK         SUNNY     66  53  63 NW12      29.78F
$$

NEZ005>010-023>029-035>040-094-251800-
NORTH CENTRAL NEBRASKA

CITY           SKY/WX    TMP DP  RH WIND       PRES   REMARKS
VALENTINE      LGT RAIN  58  56  93 E12       29.77S
AINSWORTH      CLOUDY    58  58 100 NE12      29.76F
BROKEN BOW     PTSUNNY   68  55  63 VRB6      29.77F
ORD            MOSUNNY   67  55  65 W9        29.76F
$$

NEZ041-046>049-061>064-073>077-083>087-251800-
SOUTH CENTRAL NEBRASKA

CITY           SKY/WX    TMP DP  RH WIND       PRES   REMARKS
GRAND ISLAND   PTSUNNY   70  53  54 S8        29.79S
HASTINGS       CLOUDY    67  53  61 S8        29.80S
KEARNEY *      MOSUNNY   70  54  56 S13       29.79S
$$

NEZ011>018-030>034-042>045-251800-
NORTHEAST NEBRASKA

CITY           SKY/WX    TMP DP  RH WIND       PRES   REMARKS
NORFOLK        MOSUNNY   70  58  65 S9        29.77S
BLAIR          MOSUNNY   73  55  54 S13G21    29.79F
COLUMBUS *     SUNNY     72  54  53 SW14      29.81F
FREMONT        MOSUNNY   73  55  52 S12G20    29.79F
TEKAMAH        MOSUNNY   76  59  55 S16       29.77F
$$

NEZ050>053-065>068-078-088>093-251800-
SOUTHEAST NEBRASKA

CITY           SKY/WX    TMP DP  RH WIND       PRES   REMARKS
LINCOLN        SUNNY     73  58  59 SW7       29.80F
OMAHA EPPLEY   MOSUNNY   73  58  59 SW12      29.79F
FALLS CITY     SUNNY     77  61  57 S15G28    29.82S
$$

NEZ044-045-051>053-067-251800-
OMAHA AREA

CITY           SKY/WX    TMP DP  RH WIND       PRES   REMARKS
OMAHA EPPLEY   MOSUNNY   73  58  59 SW12      29.79F
BLAIR          MOSUNNY   73  55  54 S13G21    29.79F
FREMONT        MOSUNNY   73  55  52 S12G20    29.79F
OFFUTT AFB     SUNNY     73  59  61 S12       29.79F
$$


USA.gov is the U.S. government's official web portal to all federal, state and local government web resources and services.